CW9931 Weather Reports


Display with metric or nautical units.
time (UTC)temp
F
wind
direction
speed
MPH
gust
MPH
rain 1hr
in
rain 24hr
in
rain mn
in
humidity
%
barometer
mb
20260906103103 68 12 0.0 2.0 0.00 0.07 0.00 92 1011.6
20260906102603 69 111 1.0 3.0 0.00 0.07 0.00 92 1011.5
20260906102104 69 35 0.0 3.0 0.00 0.07 0.00 92 1011.5
20260906101103 69 74 2.0 3.0 0.00 0.07 0.00 91 1011.5
20260906100603 69 16 1.0 3.0 0.00 0.07 0.00 91 1011.5
20260906094604 69 54 2.0 6.0 0.00 0.07 0.00 91 1011.5
20260906094103 69 64 2.0 12.0 0.00 0.07 0.00 91 1011.5
20260906093603 70 44 5.0 8.0 0.00 0.07 0.00 91 1011.6
20260906093103 70 31 6.0 9.0 0.00 0.07 0.00 91 1011.5
20260906092603 70 354 2.0 9.0 0.00 0.07 0.00 91 1011.5
20260906091603 70 44 1.0 9.0 0.00 0.07 0.00 92 1011.6
20260906091104 70 21 3.0 8.0 0.00 0.07 0.00 92 1011.5
20260906090604 70 62 10.0 12.0 0.00 0.07 0.00 93 1011.4
20260906090103 71 58 3.0 8.0 0.00 0.07 0.00 93 1011.3
20260906085603 71 230 1.0 6.0 0.00 0.07 0.00 93 1011.2
20260906085104 71 331 0.0 8.0 0.00 0.07 0.00 93 1011.2
20260906084603 71 61 1.0 12.0 0.00 0.07 0.00 94 1011.2
20260906083604 71 33 5.0 8.0 0.00 0.07 0.00 94 1011.2
20260906083103 71 94 2.0 8.0 0.00 0.07 0.00 94 1011.0
20260906082603 71 199 2.0 12.0 0.00 0.07 0.00 94 1010.8
20260906082103 71 48 2.0 6.0 0.00 0.07 0.00 94 1010.8
20260906081603 71 33 7.0 9.0 0.00 0.07 0.00 94 1010.8
20260906080603 71 0 2.0 8.0 0.00 0.07 0.00 94 1010.8
20260906080103 71 81 4.0 12.0 0.00 0.07 0.00 94 1010.8
20260906075603 71 65 3.0 8.0 0.00 0.07 0.00 94 1010.9
20260906075103 71 41 0.0 3.0 0.00 0.07 0.00 94 1010.8
20260906074603 71 42 1.0 3.0 0.00 0.07 0.00 94 1010.8
20260906074103 71 28 1.0 3.0 0.00 0.07 0.00 94 1010.8
20260906072103 71 14 1.0 3.0 0.00 0.07 0.00 94 1010.7
20260906071603 71 4 1.0 2.0 0.00 0.07 0.00 94 1010.7
20260906071104 71 86 1.0 2.0 0.00 0.07 0.00 94 1010.8
20260906070603 71 59 1.0 3.0 0.00 0.07 0.00 94 1010.8
20260906070104 71 37 2.0 3.0 0.00 0.07 0.00 94 1010.9
20260906065604 71 10 1.0 3.0 0.00 0.07 0.00 94 1011.1
20260906064603 71 83 1.0 3.0 0.00 0.07 0.00 94 1011.1
20260906062603 71 59 0.0 2.0 0.00 0.07 0.00 93 1011.1
20260906061604 71 23 0.0 2.0 0.00 0.07 0.00 93 1011.0
20260906061104 71 9 0.0 0.0 0.00 0.07 0.00 93 1010.8
20260906060603 71 316 0.0 2.0 0.00 0.07 0.00 93 1010.9
20260906060103 71 349 0.0 2.0 0.00 0.07 0.00 92 1010.8
20260906055604 71 17 0.0 2.0 0.00 0.07 0.00 92 1010.7
20260906055104 71 321 0.0 2.0 0.00 0.07 0.00 92 1010.7
20260906054103 72 62 0.0 3.0 0.00 0.07 0.00 92 1010.7
20260906053604 72 63 0.0 2.0 0.00 0.07 0.00 92 1010.7
20260906053103 72 29 1.0 3.0 0.00 0.07 0.00 91 1010.7
20260906052603 72 85 1.0 9.0 0.00 0.07 0.00 91 1010.6
20260906052104 72 72 1.0 3.0 0.00 0.07 0.00 91 1010.6
20260906051103 72 53 1.0 3.0 0.00 0.07 0.00 91 1010.6
20260906045104 72 96 2.0 8.0 0.00 0.07 0.07 91 1010.5
20260906044603 72 4 2.0 8.0 0.00 0.07 0.07 91 1010.4
20260906044103 72 336 2.0 3.0 0.00 0.07 0.07 91 1010.3
20260906043604 72 55 5.0 9.0 0.00 0.07 0.07 91 1010.4
20260906043103 72 51 2.0 8.0 0.00 0.07 0.07 91 1010.5
20260906042604 72 82 2.0 14.0 0.00 0.07 0.07 91 1010.4
20260906042103 72 59 2.0 12.0 0.00 0.07 0.07 91 1010.4
20260906041603 72 65 2.0 9.0 0.00 0.07 0.07 91 1010.3
20260906041104 72 50 3.0 9.0 0.00 0.07 0.07 91 1010.3
20260906040603 72 63 1.0 8.0 0.00 0.07 0.07 91 1010.4
20260906035103 72 41 7.0 9.0 0.00 0.07 0.07 91 1010.3
20260906034604 72 9 3.0 12.0 0.00 0.07 0.07 90 1010.2
20260906034104 72 59 5.0 6.0 0.00 0.07 0.07 90 1010.2
20260906033603 72 349 5.0 9.0 0.00 0.07 0.07 90 1010.2
20260906032604 73 73 5.0 9.0 0.00 0.07 0.07 90 1010.2
20260906032103 73 77 2.0 8.0 0.00 0.07 0.07 89 1010.1
20260906031104 73 17 3.0 12.0 0.00 0.07 0.07 89 1010.2
20260906030603 73 71 3.0 9.0 0.00 0.07 0.07 89 1010.2
20260906025604 73 29 6.0 12.0 0.00 0.07 0.07 88 1010.3
20260906025104 74 27 9.0 17.0 0.00 0.07 0.07 88 1010.3
20260906024603 74 33 10.0 15.0 0.00 0.07 0.07 88 1010.3
20260906024104 74 344 5.0 9.0 0.00 0.07 0.07 87 1010.3
20260906023103 74 17 5.0 14.0 0.00 0.07 0.07 87 1010.2
20260906022604 74 41 9.0 14.0 0.00 0.07 0.07 86 1009.9
20260906022104 75 63 6.0 15.0 0.00 0.07 0.07 86 1009.9
20260906021604 75 42 4.0 9.0 0.00 0.07 0.07 86 1009.9
20260906021103 75 41 3.0 9.0 0.00 0.07 0.07 86 1009.8
20260906020603 75 59 12.0 17.0 0.00 0.07 0.07 85 1009.8
20260906020104 76 344 13.0 17.0 0.00 0.07 0.07 85 1009.9
20260906015603 76 338 9.0 17.0 0.00 0.07 0.07 85 1009.8
20260906015104 76 18 12.0 14.0 0.00 0.07 0.07 85 1009.7
20260906014103 77 69 5.0 14.0 0.00 0.07 0.07 84 1009.6
20260906013604 77 356 7.0 17.0 0.00 0.07 0.07 84 1009.4
20260906012603 78 40 14.0 15.0 0.00 0.07 0.07 83 1009.1
20260906012103 78 0 5.0 17.0 0.00 0.07 0.07 83 1009.1
20260906011604 79 8 9.0 14.0 0.00 0.07 0.07 83 1009.0
20260906011104 79 17 5.0 12.0 0.00 0.07 0.07 82 1008.9
20260906010603 79 37 5.0 12.0 0.00 0.07 0.07 82 1008.9
20260906010103 80 109 3.0 12.0 0.00 0.07 0.07 81 1008.9
20260906005603 80 134 5.0 14.0 0.00 0.07 0.07 80 1008.9
20260906005103 80 64 6.0 14.0 0.00 0.07 0.07 80 1008.9
20260906004604 81 329 5.0 14.0 0.00 0.07 0.07 79 1008.7
20260906003603 81 341 7.0 8.0 0.00 0.07 0.07 78 1008.7
20260906003103 81 355 9.0 17.0 0.00 0.07 0.07 77 1008.7
20260906002103 82 87 4.0 9.0 0.00 0.07 0.07 77 1008.6
20260906001603 82 3 8.0 12.0 0.00 0.07 0.07 77 1008.6
20260906001104 83 69 2.0 14.0 0.00 0.07 0.07 76 1008.4
20260905235603 84 76 5.0 12.0 0.00 0.07 0.07 76 1008.6
20260905235104 84 71 2.0 9.0 0.00 0.07 0.07 76 1008.6
20260905234603 84 10 5.0 8.0 0.00 0.07 0.07 75 1008.6
20260905234103 84 34 6.0 12.0 0.00 0.07 0.07 75 1008.4
20260905233604 85 21 3.0 9.0 0.00 0.07 0.07 75 1008.4
20260905233103 85 13 10.0 12.0 0.00 0.07 0.07 75 1008.3
20260905232604 85 36 6.0 14.0 0.00 0.07 0.07 75 1008.2
20260905232104 86 1 11.0 14.0 0.00 0.07 0.07 74 1008.0
20260905231604 86 46 13.0 17.0 0.00 0.07 0.07 74 1008.0
20260905231103 87 321 11.0 17.0 0.00 0.07 0.07 74 1008.0
20260905230103 87 57 11.0 14.0 0.00 0.07 0.07 73 1008.0
20260905225603 88 357 9.0 15.0 0.00 0.07 0.07 73 1007.8
20260905225104 88 21 9.0 17.0 0.00 0.07 0.07 74 1007.8
20260905224603 88 335 5.0 20.0 0.00 0.07 0.07 74 1007.6
20260905224103 89 16 7.0 12.0 0.00 0.07 0.07 74 1007.5
20260905223604 89 18 4.0 15.0 0.00 0.07 0.07 73 1007.5
20260905222603 90 27 6.0 12.0 0.00 0.07 0.07 73 1007.4
20260905222104 90 354 1.0 17.0 0.00 0.07 0.07 73 1007.4
20260905221603 90 351 0.0 0.0 0.00 0.07 0.07 72 1007.4
20260905221104 90 1 0.0 0.0 0.00 0.07 0.07 71 1007.4
20260905220604 90 18 0.0 0.0 0.00 0.07 0.07 70 1007.3
20260905220104 90 34 0.0 0.0 0.00 0.07 0.07 69 1007.2
20260905215604 90 24 0.0 0.0 0.00 0.07 0.07 68 1007.2
20260905215103 91 145 0.0 0.0 0.00 0.07 0.07 68 1007.2
20260905214604 91 26 0.0 0.0 0.00 0.07 0.07 70 1007.2
20260905213603 91 21 0.0 0.0 0.00 0.07 0.07 70 1007.1
20260905213104 91 349 0.0 0.0 0.00 0.07 0.07 70 1007.1
20260905212603 91 42 0.0 0.0 0.00 0.07 0.07 70 1007.1
20260905211603 91 65 0.0 0.0 0.00 0.07 0.07 69 1007.2
20260905211103 92 355 0.0 0.0 0.00 0.07 0.07 69 1007.2
20260905210604 92 21 0.0 0.0 0.00 0.07 0.07 68 1007.1
20260905210103 92 40 0.0 0.0 0.00 0.07 0.07 68 1007.2
20260905205603 92 61 0.0 0.0 0.00 0.07 0.07 68 1007.3
20260905205103 92 37 0.0 0.0 0.00 0.07 0.07 69 1007.3
20260905204603 92 19 0.0 0.0 0.00 0.07 0.07 69 1007.4
20260905204104 92 3 0.0 0.0 0.00 0.07 0.07 68 1007.4
20260905203603 92 25 0.0 0.0 0.00 0.07 0.07 68 1007.3
20260905203103 93 3 0.0 0.0 0.00 0.07 0.07 68 1007.3
20260905202604 93 59 0.0 0.0 0.00 0.07 0.07 68 1007.4
20260905202103 93 11 0.0 0.0 0.00 0.07 0.07 67 1007.4
20260905201604 93 346 0.0 0.0 0.00 0.07 0.07 65 1007.4
20260905201103 93 293 0.0 0.0 0.00 0.07 0.07 65 1007.4
20260905200603 93 23 0.0 0.0 0.00 0.07 0.07 65 1007.4
20260905200104 93 2 0.0 0.0 0.00 0.07 0.07 65 1007.5
20260905194603 94 351 0.0 0.0 0.00 0.07 0.07 64 1007.4
20260905194104 94 310 0.0 0.0 0.00 0.07 0.07 63 1007.6
20260905193604 94 92 0.0 0.0 0.00 0.07 0.07 66 1007.5
20260905193103 93 308 0.0 0.0 0.00 0.07 0.07 67 1007.7
20260905192604 93 40 0.0 0.0 0.00 0.07 0.07 67 1007.8
20260905192103 93 3 0.0 0.0 0.00 0.07 0.07 65 1007.8
20260905191604 93 26 0.0 0.0 0.00 0.07 0.07 67 1007.8
20260905191103 93 296 0.0 0.0 0.00 0.07 0.07 65 1007.9
20260905185603 93 328 0.0 0.0 0.00 0.07 0.07 70 1008.0
20260905185104 92 113 0.0 0.0 0.00 0.07 0.07 69 1008.0
20260905184603 93 309 0.0 0.0 0.00 0.07 0.07 68 1008.1
20260905184104 92 14 0.0 0.0 0.00 0.07 0.07 70 1008.3
20260905183604 92 260 0.0 0.0 0.00 0.07 0.07 70 1008.4
20260905183103 91 330 0.0 0.0 0.00 0.07 0.07 72 1008.4
20260905182603 91 42 0.0 0.0 0.00 0.07 0.07 71 1008.3
20260905182103 92 34 0.0 0.0 0.00 0.07 0.07 69 1008.3
20260905181604 93 41 0.0 0.0 0.00 0.07 0.07 65 1008.4
20260905181103 94 22 0.0 0.0 0.00 0.07 0.07 61 1008.4
20260905180603 95 59 0.0 0.0 0.00 0.07 0.07 63 1008.4
20260905180103 96 23 0.0 0.0 0.00 0.07 0.07 63 1008.3
20260905175603 96 292 0.0 0.0 0.00 0.07 0.07 64 1008.3
20260905175103 96 186 0.0 0.0 0.00 0.07 0.07 63 1008.3
20260905174103 95 157 0.0 0.0 0.00 0.07 0.07 68 1008.4
20260905173603 94 231 0.0 0.0 0.00 0.07 0.07 68 1008.4
20260905173103 94 232 0.0 0.0 0.00 0.07 0.07 68 1008.7
20260905172604 93 99 0.0 0.0 0.00 0.07 0.07 68 1008.8
20260905172104 93 77 0.0 0.0 0.00 0.07 0.07 70 1008.8
20260905170104 93 46 0.0 0.0 0.00 0.07 0.07 73 1008.9
20260905165104 92 173 0.0 0.0 0.00 0.07 0.07 72 1008.9
20260905164604 93 183 0.0 0.0 0.00 0.07 0.07 72 1009.0
20260905164103 93 208 0.0 0.0 0.00 0.07 0.07 72 1009.1
20260905161603 91 138 0.0 0.0 0.00 0.07 0.07 77 1009.0
20260905155604 89 138 0.0 0.0 0.00 0.07 0.07 80 1009.3
20260905155103 89 109 0.0 0.0 0.04 0.07 0.07 81 1009.4
20260905154604 88 113 0.0 0.0 0.07 0.07 0.07 82 1009.4
20260905154104 88 153 0.0 0.0 0.07 0.07 0.07 82 1009.3
20260905153104 87 120 0.0 0.0 0.07 0.07 0.07 87 1009.1
20260905152604 86 127 0.0 0.0 0.07 0.07 0.07 88 1009.0
20260905151104 85 111 0.0 0.0 0.07 0.07 0.07 87 1009.0
20260905150603 85 110 0.0 0.0 0.07 0.07 0.07 85 1009.0
20260905145604 86 95 0.0 0.0 0.07 0.07 0.07 81 1009.0
20260905144603 87 294 0.0 0.0 0.00 0.00 0.00 79 1009.0
20260905144103 87 294 0.0 0.0 0.00 0.00 0.00 78 1009.1
20260905143603 87 295 0.0 0.0 0.00 0.00 0.00 79 1009.1
20260905142604 86 322 0.0 0.0 0.00 0.00 0.00 79 1009.0
20260905142104 86 322 0.0 0.0 0.00 0.00 0.00 79 1009.0
20260905141603 86 31 0.0 0.0 0.00 0.00 0.00 78 1009.0
20260905141104 85 354 0.0 0.0 0.00 0.00 0.00 81 1009.0
20260905140604 85 31 0.0 0.0 0.00 0.00 0.00 84 1009.0
20260905140103 84 22 0.0 0.0 0.00 0.00 0.00 85 1008.9
20260905135603 83 27 0.0 0.0 0.00 0.00 0.00 85 1008.7
20260905135104 82 39 0.0 0.0 0.00 0.00 0.00 86 1008.8
20260905134603 82 9 0.0 0.0 0.00 0.00 0.00 87 1008.7
20260905134103 81 28 0.0 0.0 0.00 0.00 0.00 89 1008.7
20260905133103 81 41 0.0 0.0 0.00 0.00 0.00 90 1008.6
20260905132604 80 41 0.0 0.0 0.00 0.00 0.00 91 1008.7
20260905132103 80 46 0.0 0.0 0.00 0.00 0.00 91 1008.8
20260905131104 80 34 0.0 0.0 0.00 0.00 0.00 92 1008.9
20260905130603 79 34 0.0 0.0 0.00 0.00 0.00 93 1009.0
20260905130104 79 34 0.0 0.0 0.00 0.00 0.00 93 1008.9
20260905125603 78 30 0.0 0.0 0.00 0.00 0.00 94 1008.9
20260905125104 78 30 0.0 0.0 0.00 0.00 0.00 95 1008.8
20260905124603 78 30 0.0 0.0 0.00 0.00 0.00 95 1008.8
20260905124103 78 30 0.0 0.0 0.00 0.00 0.00 95 1008.9
20260905123103 77 30 0.0 0.0 0.00 0.00 0.00 96 1008.8
20260905122603 77 30 0.0 0.0 0.00 0.00 0.00 96 1008.8
20260905121103 76 30 0.0 0.0 0.00 0.00 0.00 96 1008.8
20260905120604 76 30 0.0 0.0 0.00 0.00 0.00 96 1008.8
20260905115603 75 30 0.0 0.0 0.00 0.00 0.00 95 1008.7
20260905115104 75 30 0.0 0.0 0.00 0.00 0.00 95 1008.7
20260905114603 75 30 0.0 0.0 0.00 0.00 0.00 95 1008.7
20260905114103 75 30 0.0 0.0 0.00 0.00 0.00 95 1008.6
20260905113603 75 30 0.0 0.0 0.00 0.00 0.00 95 1008.6
20260905113103 75 30 0.0 0.0 0.00 0.00 0.00 95 1008.6
20260905112104 75 30 0.0 0.0 0.00 0.00 0.00 95 1008.6
20260905111603 75 30 0.0 0.0 0.00 0.00 0.00 95 1008.6
20260905111103 75 30 0.0 0.0 0.00 0.00 0.00 95 1008.6
20260905110603 75 30 0.0 0.0 0.00 0.00 0.00 95 1008.6
20260905110104 76 30 0.0 0.0 0.00 0.00 0.00 95 1008.5
20260905105604 76 30 0.0 0.0 0.00 0.00 0.00 95 1008.4
20260905104603 76 30 0.0 0.0 0.00 0.00 0.00 95 1008.4
20260905103604 76 30 0.0 0.0 0.00 0.00 0.00 94 1008.5